Date String (YYYY-MM-DD hh:mm:ss) UTC,Instrument flags,absolute air pressure of the measurement (hPa),sample flow rate (lpm),inlet stack bypass flow (lpm),air temperature of the measurement (°C),ambient temperature measured by the external sensor (°C),aerosol sample conditioner tube jacket temperature (°C),OPC LED temperature (°C),internal box temperature (°C),relative humidity of the measurement (%),span deviation,mass concentration of particles derived from Lorenz-Mie calculation of OPC scattering (μg/m³),mass concentration of particles derived from Lorenz-Mie calculation of OPC scattering (μg/m³),mass concentration of particles derived from Lorenz-Mie calculation of OPC scattering (μg/m³)
DateTimeUTC,F1_M11,P_M11,Q1_M11,Q2_M11,T1_M11,T2_M11,T3_M11,T4_M11,T5_M11,U1_M11,ZSPAN_M11,X2_M11,X0_M11,X1_M11
2024-04-18 15:00:00,SystemResetWarning,0835.2,5.00,000.00,021.2,020.5,000.0,029.9,023.1,019.3,0000.0,0003.70,0005.82,0003.44
2024-04-18 15:01:00,SystemResetWarning,0835.1,5.00,000.00,021.2,020.5,000.0,029.8,023.1,019.3,0000.0,0003.69,0005.78,0003.44
2024-04-18 15:02:00,SystemResetWarning,0835.1,5.01,000.00,021.2,020.5,000.0,029.8,023.0,019.3,0000.0,0003.66,0005.66,0003.44
2024-04-18 15:03:00,SystemResetWarning,0835.1,5.01,000.00,021.2,020.4,000.0,029.8,023.0,019.3,0000.0,0003.68,0005.64,0003.44
2024-04-18 15:04:00,SystemResetWarning,0834.9,5.00,000.00,021.2,020.4,000.0,029.8,023.0,019.4,0000.0,0003.70,0005.61,0003.46
2024-04-18 15:05:00,SystemResetWarning,0835.1,5.00,000.00,021.2,020.4,000.0,029.8,023.0,019.4,0000.0,0003.73,0005.79,0003.47
2024-04-18 15:06:00,SystemResetWarning,0835.1,5.00,000.00,021.1,020.4,000.0,029.8,023.0,019.3,0000.0,0003.78,0005.36,0003.50
2024-04-18 15:07:00,SystemResetWarning,0835.1,5.00,000.00,021.1,020.4,000.0,029.8,023.0,019.4,0000.0,0003.82,0005.42,0003.54
2024-04-18 15:08:00,SystemResetWarning,0835.2,5.00,000.00,021.1,020.4,000.0,029.8,023.0,019.4,0000.0,0003.87,0005.47,0003.60
2024-04-18 15:09:00,SystemResetWarning,0834.9,4.99,000.00,021.1,020.4,000.0,029.8,023.0,019.4,0000.0,0003.92,0005.58,0003.65
2024-04-18 15:10:00,SystemResetWarning,0834.6,4.99,000.00,021.1,020.3,000.0,029.8,023.0,019.3,0000.0,0004.00,0005.75,0003.72
2024-04-18 15:11:00,SystemResetWarning,0834.7,4.99,000.00,021.1,020.3,000.0,029.8,023.0,019.3,0000.0,0004.07,0005.89,0003.76
2024-04-18 15:12:00,SystemResetWarning,0835.0,5.00,000.00,021.1,020.3,000.0,029.8,022.9,019.4,0000.0,0004.13,0006.09,0003.81
2024-04-18 15:13:00,SystemResetWarning,0835.0,5.01,000.00,021.1,020.3,000.0,029.8,022.9,019.4,0000.0,0004.19,0006.20,0003.88
2024-04-18 15:14:00,SystemResetWarning,0834.7,5.01,000.00,021.1,020.3,000.0,029.7,022.9,019.4,0000.0,0004.23,0006.29,0003.93
2024-04-18 15:15:00,SystemResetWarning,0834.7,4.99,000.00,021.1,020.3,000.0,029.7,022.9,019.5,0000.0,0004.26,0006.28,0003.97
2024-04-18 15:16:00,SystemResetWarning,0834.7,4.99,000.00,021.1,020.3,000.0,029.7,022.9,019.5,0000.0,0004.28,0006.19,0004.01
2024-04-18 15:17:00,SystemResetWarning,0834.8,5.00,000.00,021.0,020.3,000.0,029.7,022.9,019.5,0000.0,0004.28,0006.07,0004.04
2024-04-18 15:18:00,SystemResetWarning,0834.8,5.01,000.00,021.0,020.3,000.0,029.7,022.9,019.6,0000.0,0004.30,0006.14,0004.06
2024-04-18 15:19:00,SystemResetWarning,0834.7,5.01,000.00,021.0,020.3,000.0,029.7,022.9,019.7,0000.0,0004.31,0006.17,0004.06
2024-04-18 15:20:00,SystemResetWarning,0834.7,5.01,000.00,021.0,020.3,000.0,029.7,022.9,019.7,0000.0,0004.32,0006.21,0004.07
2024-04-18 15:21:00,SystemResetWarning,0834.7,5.00,000.00,021.0,020.2,000.0,029.7,022.9,019.7,0000.0,0004.30,0006.11,0004.05
2024-04-18 15:22:00,SystemResetWarning,0834.7,5.00,000.00,021.0,020.2,000.0,029.7,022.9,019.7,0000.0,0004.29,0006.13,0004.05
2024-04-18 15:23:00,SystemResetWarning,0834.7,5.00,000.00,021.0,020.2,000.0,029.7,022.9,019.8,0000.0,0004.28,0006.26,0004.04
2024-04-18 15:24:00,SystemResetWarning,0834.7,4.99,000.00,021.0,020.2,000.0,029.7,022.9,019.9,0000.0,0004.27,0006.26,0004.02
2024-04-18 15:25:00,SystemResetWarning,0834.7,5.00,000.00,021.0,020.2,000.0,029.7,022.9,020.0,0000.0,0004.24,0006.20,0003.99
2024-04-18 15:26:00,SystemResetWarning,0834.8,5.02,000.00,021.0,020.3,000.0,029.6,022.8,020.0,0000.0,0004.20,0006.11,0003.94
2024-04-18 15:27:00,SystemResetWarning,0834.8,5.01,000.00,021.0,020.2,000.0,029.6,022.8,019.9,0000.0,0004.16,0006.15,0003.89
2024-04-18 15:28:00,SystemResetWarning,0834.7,4.99,000.00,021.0,020.2,000.0,029.6,022.8,019.8,0000.0,0004.10,0007.70,0003.83
2024-04-18 15:29:00,SystemResetWarning,0835.0,4.99,000.00,021.0,020.2,000.0,029.6,022.8,019.7,0000.0,0004.03,0007.84,0003.76
2024-04-18 15:30:00,SystemResetWarning,0835.2,5.00,000.00,021.0,020.2,000.0,029.6,022.8,019.7,0000.0,0003.98,0007.88,0003.70
2024-04-18 15:31:00,SystemResetWarning,0835.1,5.02,000.00,021.0,020.2,000.0,029.6,022.8,019.7,0000.0,0003.92,0007.84,0003.64
2024-04-18 15:32:00,SystemResetWarning,0835.2,5.00,000.00,020.9,020.2,000.0,029.6,022.8,019.6,0000.0,0003.87,0007.76,0003.60
2024-04-18 15:33:00,SystemResetWarning,0835.0,5.00,000.00,020.9,020.2,000.0,029.6,022.8,019.6,0000.0,0003.82,0007.69,0003.56
2024-04-18 15:34:00,SystemResetWarning,0834.7,5.00,000.00,020.9,020.2,000.0,029.6,022.8,019.6,0000.0,0003.76,0007.47,0003.52
2024-04-18 15:35:00,SystemResetWarning,0834.7,4.99,000.00,020.9,020.2,000.0,029.6,022.8,019.4,0000.0,0003.71,0007.42,0003.48
2024-04-18 15:36:00,SystemResetWarning,0834.7,5.00,000.00,020.9,020.2,000.0,029.6,022.8,019.3,0000.0,0003.68,0007.63,0003.44
2024-04-18 15:37:00,SystemResetWarning,0834.8,5.00,000.00,020.9,020.2,000.0,029.6,022.8,019.2,0000.0,0003.67,0007.77,0003.44
2024-04-18 15:38:00,SystemResetWarning,0834.8,5.01,000.00,020.9,020.2,000.0,029.6,022.8,019.2,0000.0,0003.66,0007.75,0003.44
2024-04-18 15:39:00,SystemResetWarning,0834.7,5.01,000.00,020.9,020.2,000.0,029.6,022.8,019.2,0000.0,0003.66,0006.71,0003.44
2024-04-18 15:40:00,SystemResetWarning,0834.7,5.00,000.00,020.9,020.2,000.0,029.6,022.8,019.1,0000.0,0003.67,0005.76,0003.44
2024-04-18 15:41:00,SystemResetWarning,0834.7,4.99,000.00,020.9,020.2,000.0,029.5,022.8,019.0,0000.0,0003.66,0005.54,0003.46
2024-04-18 15:42:00,SystemResetWarning,0834.7,4.99,000.00,020.9,020.2,000.0,029.5,022.8,019.0,0000.0,0003.65,0005.37,0003.48
2024-04-18 15:43:00,SystemResetWarning,0834.7,5.00,000.00,020.9,020.2,000.0,029.5,022.8,019.1,0000.0,0003.65,0005.36,0003.49
2024-04-18 15:44:00,SystemResetWarning,0834.9,5.01,000.00,020.9,020.2,000.0,029.5,022.8,019.3,0000.0,0003.68,0005.48,0003.50
2024-04-18 15:45:00,SystemResetWarning,0834.6,5.00,000.00,020.9,020.2,000.0,029.5,022.8,019.3,0000.0,0003.71,0005.64,0003.51
2024-04-18 15:46:00,SystemResetWarning,0834.7,5.00,000.00,020.9,020.2,000.0,029.5,022.8,019.3,0000.0,0003.74,0005.77,0003.53
2024-04-18 15:47:00,SystemResetWarning,0834.7,5.00,000.00,020.9,020.2,000.0,029.5,022.8,019.5,0000.0,0003.75,0005.52,0003.55
2024-04-18 15:48:00,SystemResetWarning,0834.7,5.00,000.00,020.9,020.2,000.0,029.5,022.7,019.6,0000.0,0003.77,0005.06,0003.56
2024-04-18 15:49:00,SystemResetWarning,0834.7,5.00,000.00,020.9,020.2,000.0,029.5,022.7,019.7,0000.0,0003.79,0005.11,0003.56
2024-04-18 15:50:00,SystemResetWarning,0834.7,4.99,000.00,020.9,020.2,000.0,029.5,022.7,019.7,0000.0,0003.81,0005.12,0003.59
2024-04-18 15:51:00,SystemResetWarning,0834.8,5.00,000.00,020.9,020.1,000.0,029.5,022.7,019.7,0000.0,0003.85,0005.33,0003.62
2024-04-18 15:52:00,SystemResetWarning,0834.9,5.00,000.00,020.8,020.1,000.0,029.5,022.7,019.8,0000.0,0003.90,0005.62,0003.64
2024-04-18 15:53:00,SystemResetWarning,0834.9,5.00,000.00,020.8,020.1,000.0,029.5,022.7,019.8,0000.0,0003.94,0005.78,0003.67
2024-04-18 15:54:00,SystemResetWarning,0834.7,5.00,000.00,020.8,020.1,000.0,029.5,022.7,019.8,0000.0,0004.00,0005.85,0003.72
2024-04-18 15:55:00,SystemResetWarning,0834.8,5.02,000.00,020.8,020.1,000.0,029.5,022.7,019.7,0000.0,0004.06,0005.94,0003.77
2024-04-18 15:56:00,SystemResetWarning,0834.7,5.00,000.00,020.8,020.1,000.0,029.5,022.7,019.7,0000.0,0004.09,0005.91,0003.83
2024-04-18 15:57:00,SystemResetWarning,0834.8,4.99,000.00,020.8,020.1,000.0,029.5,022.7,019.9,0000.0,0004.12,0005.89,0003.88
2024-04-18 15:58:00,SystemResetWarning,0834.8,4.99,000.00,020.8,020.1,000.0,029.5,022.7,019.9,0000.0,0004.16,0005.94,0003.92
2024-04-18 15:59:00,SystemResetWarning,0834.7,5.01,000.00,020.8,020.1,000.0,029.5,022.6,019.8,0000.0,0004.19,0006.00,0003.97
